Probability
0 0 0 0 0 0 0 0 0 0 0 0 0 0 0 0 0 3 0 0 0 10 26 39 52 48 48 52 55 39 39 45 45 39 35 32 32 29 35 32 32 32 32 26 23 19 16 6 6
0 0 0 0 0 0 0 0 0 0 0 0 0 0 0 0 0 0 0 0 0 6 23 29 52 45 48 55 45 42 32 35 39 42 35 32 29 23 29 26 29 29 26 19 16 19 13 3 3
0 0 0 0 0 0 0 0 0 0 0 0 0 0 3 0 0 0 0 3 6 6 19 39 48 52 52 48 42 42 32 35 39 39 39 35 29 23 29 29 29 26 26 16 16 13 6 3 3
0 0 0 0 0 0 0 0 0 3 0 0 0 3 0 3 6 0 0 6 6 16 19 35 45 45 48 45 42 39 35 35 35 39 39 32 29 26 26 26 26 23 19 13 13 6 6 3 3
0 0 0 0 0 0 0 0 0 3 3 3 3 6 0 3 6 3 6 6 13 16 26 32 35 45 45 42 42 45 32 35 35 29 32 32 32 29 26 19 19 23 16 16 10 6 6 3 3
0 0 0 0 0 0 0 0 3 3 3 3 3 3 3 3 10 10 6 13 10 13 23 29 35 39 45 45 45 39 32 26 26 23 26 19 26 19 16 19 16 16 13 16 10 6 6 3 3
0 0 0 0 0 0 0 0 3 3 3 3 3 3 3 3 6 6 6 16 16 23 23 32 35 32 35 42 45 39 29 29 29 26 23 19 23 23 16 19 16 13 16 16 10 6 6 3 3
0 0 0 0 0 0 0 0 3 3 3 0 0 3 3 6 3 3 3 13 13 16 23 32 29 23 26 23 26 26 23 23 16 16 10 6 6 13 13 10 13 13 10 13 6 6 6 6 3
0 0 0 0 0 0 0 0 0 0 0 0 0 0 0 3 3 3 6 6 10 6 13 19 26 29 23 3 0 3 3 3 10 10 3 0 3 10 10 3 0 0 3 10 6 6 3 3 0
0 0 0 0 0 0 0 0 0 0 0 0 0 0 0 3 3 3 3 3 3 6 6 10 19 13 10 0 3 0 3 3 3 6 6 3 6 6 6 0 0 0 0 0 3 6 3 0 0
0 0 0 0 0 0 3 0 0 0 0 0 0 0 0 3 3 3 3 3 3 3 3 6 6 6 6 3 3 0 3 10 3 3 3 3 6 6 10 10 3 0 0 0 3 0 0 0 0
0 0 0 0 0 0 3 0 0 0 0 0 0 0 0 0 0 3 3 0 0 0 3 3 3 3 3 3 3 3 0 3 3 3 0 6 10 6 3 6 6 6 6 10 10 3 0 0 0
0 0 0 0 0 0 0 0 0 0 0 0 0 0 0 0 0 0 0 0 0 0 3 3 3 0 3 0 0 0 0 0 3 3 3 6 6 6 0 3 3 3 6 6 6 0 0 0 0
0 0 0 0 0 0 0 0 0 0 0 0 0 0 0 0 0 0 0 0 0 0 0 3 0 0 0 0 0 0 0 0 0 0 0 0 0 0 0 0 0 0 3 6 3 0 0 0 0
0 0 0 0 0 0 0 0 0 0 0 0 0 0 0 0 0 0 0 0 0 0 0 0 0 0 0 0 0 0 0 0 0 0 0 0 0 0 0 0 0 0 0 0 3 0 0 0 0
0 0 0 0 0 0 0 0 0 0 0 0 0 0 0 0 0 0 0 0 0 0 0 0 0 0 0 0 0 0 0 0 0 0 0 0 0 0 0 0 0 0 0 0 0 0 0 0 0
0 0 0 0 0 0 0 0 0 0 0 0 0 0 0 0 0 0 0 0 0 0 0 0 0 0 0 0 0 0 0 0 0 0 0 0 0 0 0 0 0 0 0 0 0 0 0 0 0
0 0 0 0 0 0 0 0 0 0 0 0 0 0 0 0 0 0 0 0 0 0 0 0 0 0 0 0 0 0 0 0 0 0 0 0 0 0 0 0 0 0 0 0 0 0 0 0 0
0 0 0 0 0 0 0 0 0 0 0 0 0 0 0 0 0 0 0 0 0 0 0 0 0 0 0 0 0 0 0 0 0 0 0 0 0 0 0 0 0 0 0 0 0 0 0 0 0
0 0 0 0 0 0 0 0 0 0 0 0 0 0 0 0 0 0 0 0 0 0 0 0 0 0 0 0 0 0 0 0 0 0 0 0 0 0 0 0 0 0 0 0 0 0 0 0 0
0 0 0 0 0 0 0 0 0 0 0 0 0 0 0 0 0 0 0 0 0 0 0 0 0 0 0 0 0 0 0 0 0 0 0 0 0 0 0 0 0 0 0 0 0 0 0 0 0
0 0 0 0 0 0 0 0 0 0 0 0 0 0 0 0 0 0 0 0 0 0 0 0 0 0 0 0 0 0 0 0 0 0 0 0 0 0 0 0 0 0 0 0 0 0 0 0 0
0 0 0 0 0 0 0 0 0 0 0 0 0 0 0 0 0 0 0 0 0 0 0 0 0 0 0 0 0 0 0 0 0 0 0 0 0 0 0 0 0 0 0 0 0 0 0 0 0
0 0 0 0 0 0 0 0 0 0 0 0 0 0 0 0 0 0 0 0 0 0 0 0 0 0 0 0 0 0 0 0 0 0 0 0 0 0 0 0 0 0 0 0 0 0 0 0 0
0 0 0 0 0 0 0 0 0 0 0 0 0 0 0 0 0 0 0 0 0 0 0 0 0 0 0 0 0 0 0 0 0 0 0 0 0 0 0 0 0 0 0 0 0 0 0 0 0
0 0 0 0 0 0 0 0 0 0 0 0 0 0 0 0 0 0 0 0 0 0 0 0 0 0 0 0 0 0 0 0 0 0 0 0 0 0 0 0 0 0 0 0 0 0 0 0 0
0 0 0 0 0 0 0 0 0 0 0 0 0 0 0 0 0 0 0 0 0 0 0 0 0 0 0 0 0 0 0 0 0 0 0 0 0 0 0 0 0 0 0 0 0 0 0 0 0
0 0 0 0 0 0 0 0 0 0 0 0 0 0 0 0 0 0 0 0 0 0 0 0 0 0 0 0 0 0 0 0 0 0 0 0 0 0 0 0 0 0 0 0 0 0 0 0 0
0 0 0 0 0 0 0 0 0 0 0 0 0 0 0 0 0 0 0 0 0 0 0 0 0 0 0 0 0 0 0 0 0 0 0 0 0 0 0 0 0 0 0 0 0 0 0 0 0
0 0 0 0 0 0 0 0 0 0 0 0 0 0 0 0 0 0 0 0 0 0 0 0 0 0 0 0 0 0 0 0 0 0 0 0 0 0 0 0 0 0 0 0 0 0 0 0 0
Height
5836 5835 5835 5834 5834 5833 5832 5832 5833 5833 5834 5835 5835 5837 5838 5840 5842 5845 5846 5846 5848 5850 5852 5853 5855 5856 5858 5859 5860 5861 5861 5862 5863 5863 5864 5864 5865 5865 5865 5866 5866 5866 5867 5867 5867 5867 5867 5867 5867
5830 5830 5830 5828 5827 5826 5826 5825 5825 5825 5826 5827 5828 5829 5830 5832 5834 5837 5838 5840 5842 5845 5847 5849 5850 5852 5854 5855 5857 5858 5858 5859 5860 5861 5862 5862 5863 5863 5863 5864 5864 5865 5865 5865 5865 5866 5866 5866 5866
5825 5824 5823 5822 5820 5819 5818 5817 5817 5816 5817 5818 5819 5821 5822 5825 5827 5829 5832 5834 5836 5838 5841 5843 5845 5847 5849 5851 5852 5854 5855 5856 5857 5858 5859 5860 5860 5861 5861 5862 5862 5862 5863 5863 5863 5864 5864 5864 5864
5819 5818 5816 5815 5813 5811 5809 5808 5808 5808 5808 5809 5810 5812 5814 5817 5819 5822 5824 5827 5830 5832 5835 5837 5840 5842 5844 5846 5848 5850 5851 5852 5853 5855 5856 5857 5857 5858 5859 5859 5860 5860 5861 5861 5861 5861 5862 5862 5862
5813 5811 5809 5807 5805 5803 5801 5799 5799 5798 5799 5800 5801 5803 5805 5808 5810 5813 5816 5819 5822 5825 5828 5831 5834 5836 5839 5841 5843 5845 5846 5848 5849 5851 5852 5853 5854 5855 5856 5856 5857 5857 5858 5858 5858 5859 5859 5859 5859
5807 5804 5802 5800 5798 5795 5793 5791 5790 5790 5790 5791 5792 5794 5796 5799 5802 5805 5808 5811 5815 5818 5821 5824 5827 5830 5832 5835 5837 5839 5841 5843 5845 5846 5848 5849 5850 5851 5852 5853 5854 5854 5855 5855 5856 5856 5856 5856 5856
5801 5798 5795 5793 5790 5788 5786 5784 5782 5782 5781 5782 5783 5785 5788 5790 5793 5796 5799 5803 5806 5810 5813 5816 5820 5823 5826 5829 5831 5834 5836 5838 5840 5842 5843 5845 5846 5847 5849 5850 5850 5851 5852 5852 5852 5853 5853 5853 5853
5794 5792 5788 5785 5783 5781 5778 5776 5774 5773 5773 5773 5774 5776 5779 5782 5784 5787 5791 5794 5798 5801 5805 5809 5812 5816 5819 5822 5825 5828 5830 5832 5834 5837 5838 5840 5841 5843 5844 5845 5846 5847 5848 5848 5849 5849 5849 5850 5850
5788 5786 5781 5778 5776 5773 5770 5768 5766 5765 5765 5765 5766 5768 5771 5773 5775 5778 5782 5785 5789 5792 5796 5800 5805 5808 5812 5815 5818 5821 5824 5826 5828 5831 5833 5835 5836 5838 5839 5841 5842 5843 5844 5844 5845 5845 5846 5846 5846
5782 5779 5776 5772 5769 5766 5763 5760 5758 5758 5758 5758 5758 5759 5761 5764 5766 5769 5773 5776 5780 5784 5788 5792 5796 5800 5804 5807 5810 5814 5817 5820 5822 5825 5827 5829 5831 5832 5834 5835 5837 5838 5839 5840 5841 5841 5841 5842 5842
5776 5773 5769 5766 5763 5760 5757 5754 5752 5751 5751 5750 5750 5751 5752 5755 5757 5761 5764 5768 5772 5776 5780 5784 5789 5793 5796 5799 5803 5807 5810 5813 5816 5819 5821 5823 5825 5826 5828 5830 5831 5833 5834 5835 5836 5836 5837 5837 5837
5771 5767 5764 5760 5757 5754 5751 5748 5746 5744 5744 5743 5743 5743 5744 5746 5749 5752 5755 5760 5764 5768 5773 5777 5781 5785 5789 5792 5796 5799 5803 5806 5809 5812 5814 5817 5819 5821 5822 5824 5826 5827 5829 5830 5831 5831 5832 5832 5833
5766 5763 5759 5755 5752 5748 5745 5742 5739 5738 5737 5736 5735 5735 5735 5737 5739 5743 5747 5751 5756 5760 5765 5769 5774 5778 5781 5785 5788 5792 5796 5799 5802 5805 5808 5810 5812 5815 5816 5818 5820 5822 5823 5824 5825 5826 5826 5827 5827
5762 5758 5754 5751 5747 5743 5740 5737 5734 5733 5730 5729 5728 5728 5727 5728 5731 5734 5738 5743 5748 5753 5757 5762 5766 5770 5774 5778 5781 5785 5788 5792 5795 5798 5801 5804 5806 5808 5810 5812 5814 5816 5817 5818 5819 5820 5821 5821 5822
5758 5755 5751 5746 5742 5738 5735 5733 5729 5727 5724 5723 5722 5721 5721 5722 5724 5727 5731 5736 5740 5745 5750 5755 5759 5763 5767 5770 5774 5778 5781 5785 5788 5791 5794 5797 5799 5802 5804 5806 5808 5809 5811 5812 5813 5814 5815 5815 5816
5755 5751 5747 5743 5738 5734 5732 5729 5725 5722 5719 5718 5716 5715 5715 5716 5718 5721 5724 5729 5733 5738 5743 5748 5752 5756 5760 5763 5767 5771 5774 5777 5781 5784 5787 5790 5792 5794 5797 5799 5801 5803 5804 5806 5807 5808 5809 5809 5810
5751 5747 5743 5739 5734 5730 5727 5724 5721 5717 5715 5713 5712 5711 5711 5711 5713 5716 5719 5723 5727 5732 5736 5741 5745 5749 5753 5756 5760 5763 5766 5770 5773 5777 5780 5783 5785 5787 5790 5792 5794 5796 5798 5799 5800 5801 5802 5802 5803
5748 5744 5739 5735 5730 5726 5723 5720 5717 5714 5711 5709 5708 5707 5707 5707 5709 5711 5713 5717 5721 5725 5730 5735 5738 5742 5746 5750 5753 5756 5759 5762 5766 5769 5772 5775 5778 5780 5783 5785 5787 5789 5791 5792 5793 5794 5795 5795 5796
5744 5740 5736 5732 5727 5723 5720 5716 5714 5710 5708 5706 5704 5703 5703 5704 5705 5706 5708 5712 5715 5719 5724 5729 5733 5736 5740 5743 5747 5750 5753 5756 5759 5762 5765 5768 5771 5773 5776 5778 5780 5782 5783 5785 5786 5786 5787 5788 5788
5741 5737 5733 5729 5724 5720 5716 5713 5710 5707 5705 5703 5701 5700 5700 5700 5701 5702 5704 5707 5711 5715 5719 5723 5727 5731 5734 5737 5740 5743 5746 5749 5752 5755 5758 5760 5763 5766 5768 5770 5772 5774 5775 5776 5777 5778 5779 5779 5780
5738 5734 5730 5726 5722 5717 5714 5711 5708 5705 5702 5700 5699 5697 5697 5697 5698 5699 5701 5704 5707 5711 5714 5718 5722 5725 5728 5731 5734 5737 5740 5742 5745 5747 5750 5753 5756 5758 5760 5762 5764 5765 5767 5768 5769 5770 5771 5771 5771
5736 5732 5728 5724 5720 5715 5712 5708 5706 5703 5700 5698 5696 5695 5695 5695 5695 5696 5698 5700 5703 5707 5710 5713 5716 5720 5723 5725 5728 5730 5733 5736 5738 5740 5743 5746 5748 5750 5752 5754 5756 5757 5759 5760 5761 5761 5762 5762 5762
5733 5729 5726 5721 5717 5713 5710 5706 5705 5701 5698 5696 5694 5693 5692 5692 5693 5694 5695 5697 5700 5703 5705 5708 5711 5714 5717 5720 5722 5724 5727 5729 5731 5733 5736 5738 5740 5743 5744 5746 5747 5749 5750 5751 5752 5752 5753 5753 5753
5730 5727 5723 5719 5715 5712 5708 5705 5702 5699 5696 5694 5692 5691 5690 5690 5690 5691 5692 5694 5697 5699 5701 5704 5707 5709 5712 5714 5716 5718 5720 5722 5724 5726 5728 5731 5733 5734 5736 5737 5739 5740 5741 5742 5742 5742 5742 5743 5743
5728 5725 5721 5717 5713 5710 5706 5702 5701 5697 5694 5692 5690 5689 5688 5687 5688 5688 5689 5691 5693 5696 5698 5700 5702 5704 5707 5708 5710 5711 5713 5715 5717 5719 5721 5723 5724 5726 5727 5728 5730 5730 5731 5731 5732 5732 5732 5732 5732
5725 5722 5719 5715 5711 5708 5704 5700 5699 5695 5692 5690 5688 5687 5686 5685 5685 5686 5687 5688 5689 5691 5694 5696 5697 5699 5701 5703 5704 5705 5706 5708 5710 5711 5713 5714 5716 5717 5718 5719 5720 5720 5721 5721 5721 5722 5722 5722 5721
5722 5719 5716 5712 5708 5705 5702 5699 5696 5693 5691 5688 5687 5686 5685 5684 5683 5683 5683 5684 5685 5687 5689 5690 5692 5694 5695 5697 5698 5699 5700 5701 5702 5703 5704 5706 5707 5708 5708 5709 5709 5710 5710 5710 5710 5711 5711 5710 5710
5719 5715 5713 5709 5705 5702 5700 5697 5695 5691 5689 5687 5685 5683 5682 5682 5681 5680 5680 5680 5681 5682 5684 5685 5686 5688 5689 5690 5691 5692 5693 5694 5694 5695 5696 5696 5697 5698 5699 5699 5699 5699 5699 5698 5699 5699 5699 5699 5698
5715 5712 5709 5706 5703 5700 5697 5697 5692 5689 5686 5684 5682 5681 5679 5678 5678 5677 5677 5677 5678 5678 5679 5680 5681 5682 5683 5684 5684 5685 5685 5686 5686 5687 5687 5687 5688 5688 5688 5688 5688 5688 5687 5687 5687 5687 5687 5686 5686
5711 5708 5706 5703 5700 5696 5694 5695 5689 5686 5684 5682 5679 5677 5676 5675 5674 5673 5673 5673 5673 5674 5675 5675 5675 5676 5676 5677 5677 5678 5678 5678 5678 5678 5678 5678 5677 5678 5678 5677 5677 5677 5676 5675 5675 5675 5674 5674 5674
Wind_Speed
23 24 25 26 28 30 31 31 31 31 31 31 30 30 31 31 31 31 30 29 28 26 25 23 22 21 19 18 17 16 14 13 12 12 11 11 10 10 9 8 8 7 6 6 5 5 5 4 4
23 24 25 27 29 30 31 32 32 32 33 32 32 32 32 33 33 32 31 31 30 29 28 26 25 23 22 21 19 18 16 15 15 14 13 13 12 11 10 9 9 8 7 7 6 6 6 6 6
24 25 27 28 29 31 32 32 32 32 34 34 34 34 34 34 33 33 33 32 32 31 30 29 27 26 24 23 22 21 19 17 17 16 15 15 14 13 12 11 10 10 9 8 8 8 8 8 8
24 26 27 29 29 30 31 32 32 33 34 35 35 36 36 35 34 34 34 34 33 32 31 31 30 28 27 25 24 23 22 20 19 18 18 17 16 15 14 12 11 11 10 10 10 10 10 9 9
24 25 27 28 28 29 30 31 32 33 34 35 36 37 36 36 36 35 35 35 35 34 33 32 32 31 29 28 26 25 24 23 21 20 20 19 18 17 16 15 13 13 12 12 11 11 11 11 10
24 25 26 27 27 27 28 29 30 31 33 35 35 36 36 37 37 37 36 36 36 36 35 34 33 32 31 30 29 27 26 25 23 22 22 21 20 19 18 17 16 15 14 13 13 13 13 13 12
24 25 26 26 26 26 27 28 30 30 31 32 34 34 35 36 37 37 37 37 37 37 37 36 35 34 33 31 30 29 28 27 25 24 23 23 22 21 20 19 18 17 16 15 14 14 14 14 14
23 25 25 25 25 26 26 28 29 29 30 31 32 33 34 34 36 36 37 38 38 39 38 38 37 36 34 33 32 31 30 29 28 27 25 25 24 23 22 21 20 19 18 17 16 16 16 16 15
23 24 24 24 24 24 25 25 26 27 28 29 30 31 32 33 34 35 36 37 37 37 38 39 38 37 36 35 34 33 32 30 29 28 27 27 26 25 25 23 22 21 20 19 18 17 17 17 17
22 23 23 23 23 23 23 23 23 24 24 26 28 30 31 32 34 35 35 36 36 36 37 39 39 38 37 36 35 35 33 32 31 30 28 28 28 27 26 25 24 23 22 21 20 19 18 18 18
22 22 22 22 22 22 21 21 21 22 22 24 26 28 30 32 33 35 35 36 36 36 37 38 39 39 37 36 37 36 36 34 33 31 30 30 29 29 28 27 26 25 24 23 22 21 21 20 20
21 21 21 21 22 21 21 20 20 21 21 23 24 26 28 31 32 35 36 36 37 37 38 39 39 39 37 36 37 36 36 36 35 33 32 31 30 30 29 28 27 26 25 24 24 23 23 22 22
21 20 21 21 21 21 20 19 19 19 20 21 23 24 26 28 30 33 35 35 36 38 39 40 40 39 38 37 36 36 35 35 34 32 33 31 30 30 30 29 28 27 26 25 25 24 24 24 23
21 20 21 21 21 21 20 18 19 19 19 19 20 21 23 24 27 30 32 34 34 36 38 39 39 39 38 37 36 36 36 35 34 34 33 32 31 31 30 30 30 29 28 27 27 26 25 25 25
21 21 21 21 21 20 20 18 18 18 18 18 19 20 21 23 25 28 29 31 33 35 37 38 38 38 38 38 38 38 37 36 36 34 33 33 32 32 32 31 30 29 29 29 29 28 27 27 26
21 21 21 21 20 19 18 16 16 17 17 17 17 18 18 20 22 24 26 30 32 34 36 37 37 37 38 38 38 38 38 38 37 36 34 33 33 33 33 32 31 30 30 30 30 30 29 28 28
21 21 21 21 20 19 17 16 15 16 16 15 15 15 16 18 21 23 25 27 30 33 35 35 35 35 36 37 37 38 38 37 36 36 35 33 32 32 33 33 31 31 31 31 31 31 30 30 29
20 21 21 21 20 18 16 15 14 14 14 13 13 13 14 16 18 20 23 25 28 30 32 32 33 34 34 34 35 36 36 36 35 36 36 35 34 33 33 33 32 32 32 32 32 32 31 30 30
20 21 22 21 20 18 16 15 15 14 13 12 13 12 12 15 17 19 22 24 26 28 29 29 31 32 32 32 32 33 35 36 36 36 36 36 36 35 35 35 34 33 32 32 33 33 32 32 31
21 21 21 21 20 18 16 15 15 14 14 13 13 12 11 13 16 18 20 23 24 25 26 26 27 29 30 31 31 32 33 35 36 36 37 37 36 35 35 35 34 34 34 34 34 34 33 34 34
20 20 20 20 19 18 17 15 15 14 14 13 12 12 12 12 14 17 19 21 24 25 24 24 25 27 29 30 30 30 32 33 34 35 36 36 36 35 35 35 35 35 36 36 36 36 36 36 36
19 20 20 20 20 18 17 16 14 14 13 12 12 12 11 11 12 15 17 21 23 23 24 24 25 27 28 29 29 29 29 30 32 34 35 36 36 36 35 36 36 36 37 37 37 37 38 38 38
19 19 19 19 19 19 17 16 14 14 13 12 12 13 12 11 11 13 15 18 22 23 24 22 23 23 25 27 28 29 29 29 31 34 35 36 36 37 37 37 37 37 38 38 39 39 40 40 40
19 19 19 19 19 19 17 16 15 14 13 12 12 12 12 12 11 13 15 17 20 22 23 23 22 22 24 26 28 28 28 28 31 33 35 36 36 37 38 38 38 39 39 40 40 40 40 41 41
19 19 19 19 19 19 18 17 15 14 13 12 11 11 12 12 12 13 14 16 19 21 23 24 23 23 24 25 27 29 29 29 31 33 34 36 37 37 38 38 39 40 41 42 42 42 41 41 42
19 19 19 19 19 19 18 17 16 15 14 13 12 12 13 14 13 13 14 15 18 21 23 23 24 24 24 25 26 27 28 29 31 32 34 36 38 38 38 39 40 41 42 42 43 43 43 43 44
19 19 19 19 19 19 18 17 16 15 15 14 13 12 12 13 15 14 15 17 18 20 22 23 24 24 25 26 26 27 27 28 30 32 34 35 37 38 39 40 40 41 42 42 44 45 45 45 45
19 20 19 19 20 20 19 18 16 15 14 14 14 13 13 14 15 15 15 16 18 20 23 24 23 24 25 26 27 28 28 29 31 32 34 35 36 37 38 40 41 42 43 44 45 46 46 46 46
19 19 19 19 19 20 20 18 18 16 15 15 15 14 15 15 16 17 16 16 18 21 22 23 25 26 26 26 27 29 30 31 32 34 35 35 36 38 39 39 41 42 43 44 45 46 47 47 47
20 20 20 19 19 19 19 19 19 18 16 15 15 14 15 15 16 16 17 18 19 21 23 24 25 26 27 28 28 29 30 31 33 34 36 37 37 38 39 39 40 42 42 42 44 45 46 46 48
Wind_Direction
280 278 276 274 272 269 269 267 265 262 258 254 252 249 247 245 242 242 242 241 240 239 238 236 236 235 235 235 235 236 236 235 235 231 229 227 225 223 222 220 219 220 224 228 233 241 249 259 273
282 280 278 276 275 274 272 270 266 262 258 254 252 249 246 244 243 241 241 241 239 239 239 237 236 235 234 234 235 235 235 236 236 233 230 229 228 226 226 226 225 225 227 232 240 246 252 259 271
284 282 280 279 278 277 275 270 266 261 257 254 252 249 246 244 242 240 239 239 238 237 238 238 236 235 235 234 234 234 234 236 237 235 232 231 231 230 228 229 230 231 232 237 244 249 253 261 269
287 285 283 282 281 278 275 271 266 262 258 255 252 250 247 244 242 240 238 238 237 237 236 236 236 235 235 234 234 234 235 236 237 236 235 234 234 233 232 233 234 235 237 240 245 250 255 261 267
292 289 286 284 282 279 275 272 267 263 258 255 252 249 247 244 242 240 237 236 236 236 235 235 235 235 235 234 234 234 235 236 236 237 237 236 235 235 235 235 237 238 240 243 246 250 256 261 266
296 294 290 288 285 280 277 274 270 266 261 257 253 249 246 244 242 239 237 235 235 235 234 234 234 234 234 234 234 235 236 236 236 237 237 236 237 236 237 238 240 241 243 245 247 251 257 262 266
300 297 294 290 287 283 280 277 273 268 263 257 253 249 246 244 242 240 238 235 234 234 233 232 233 233 234 234 234 234 236 237 237 238 238 237 237 237 238 240 242 244 244 245 249 252 257 262 266
302 301 298 293 289 286 282 278 274 269 264 258 254 250 247 245 243 240 238 236 234 233 231 230 231 231 232 233 233 234 236 236 237 238 239 239 239 238 239 241 244 245 246 248 250 254 258 262 267
305 304 301 298 294 289 285 280 275 270 265 260 256 254 249 245 242 240 238 235 234 232 229 227 229 230 231 231 232 234 235 236 237 238 239 240 241 240 241 242 244 246 247 249 250 254 258 262 265
309 308 305 301 298 294 290 284 278 272 266 260 257 255 251 247 242 238 235 233 232 230 228 227 227 228 230 230 230 232 233 234 236 237 239 241 242 242 242 243 245 245 246 248 250 253 258 262 265
312 312 310 304 301 299 294 289 281 275 268 262 258 256 253 248 243 238 234 231 230 229 227 227 227 228 229 230 230 232 233 234 235 237 239 241 242 243 242 243 244 245 245 247 250 253 257 261 265
314 315 314 309 306 303 298 292 285 279 270 264 262 259 255 249 243 237 234 231 229 227 226 227 227 227 230 231 229 229 230 232 234 236 238 240 242 243 243 243 243 245 246 249 251 253 256 261 265
316 317 317 313 310 306 301 294 289 283 274 269 266 263 257 249 242 236 233 231 229 227 227 227 226 228 230 232 230 230 232 233 233 236 236 239 241 243 243 242 243 245 246 248 251 254 256 260 264
318 319 319 315 312 309 304 299 292 288 279 273 271 265 257 247 240 234 232 231 228 227 227 228 228 229 231 233 233 232 233 234 234 235 235 238 240 242 243 242 244 245 247 249 251 254 256 259 262
319 320 321 318 315 311 308 304 300 293 283 278 275 268 257 246 239 235 233 230 226 224 224 225 228 230 231 232 233 233 233 234 234 234 236 237 239 241 243 243 244 246 247 249 252 254 257 258 261
320 321 321 323 320 316 313 310 305 299 290 282 276 269 256 247 240 235 230 227 224 222 222 223 226 227 229 232 233 233 235 235 235 235 237 238 240 241 241 243 245 247 249 251 253 256 257 258 261
322 323 324 324 322 318 315 314 312 305 298 287 279 270 261 250 240 233 229 223 221 220 221 222 226 226 229 231 233 234 234 236 237 237 238 239 240 243 243 244 245 247 248 250 253 255 258 259 261
324 325 326 326 324 320 316 315 314 310 306 298 285 275 265 252 240 232 228 223 220 220 220 223 227 227 229 231 234 235 236 238 240 239 239 241 242 243 245 245 246 247 249 251 253 255 258 260 262
325 326 327 327 327 322 317 315 315 312 308 303 289 280 268 256 244 234 229 224 220 220 219 225 228 228 229 233 236 238 239 240 241 240 241 242 243 245 246 247 248 249 251 253 254 256 258 261 264
326 326 327 328 328 325 319 317 317 317 311 302 288 280 274 265 254 243 232 226 221 221 221 225 228 231 234 238 240 242 242 243 243 242 241 242 243 247 249 251 251 252 253 255 256 258 261 264 266
327 327 327 327 328 325 321 317 318 317 313 304 293 283 278 272 258 245 235 229 225 223 224 229 233 234 237 238 240 242 245 246 245 245 243 244 246 249 252 252 252 255 257 258 258 261 263 265 267
327 328 328 327 327 325 323 321 320 320 315 304 298 290 279 273 264 249 239 231 226 226 229 234 237 239 240 240 241 242 245 246 245 244 244 246 249 251 252 253 254 256 257 259 261 262 264 266 267
327 328 329 329 327 325 322 321 324 321 316 307 299 292 282 270 264 252 243 234 229 232 235 237 235 239 241 243 245 244 246 247 246 245 246 247 249 251 252 253 255 256 258 259 261 263 264 266 268
325 327 327 328 327 326 325 319 322 322 320 313 301 293 284 271 264 257 248 240 237 237 237 240 239 240 242 244 247 247 248 249 248 248 248 249 250 253 254 254 256 258 259 260 262 264 265 266 268
323 327 328 329 328 326 326 321 319 320 320 320 310 296 284 276 266 261 252 245 241 240 241 243 243 243 245 248 250 249 249 249 249 249 250 251 252 254 255 256 257 259 260 262 263 265 266 266 267
321 323 326 328 329 328 326 324 322 316 317 318 312 300 288 282 275 261 254 251 246 241 240 244 244 246 248 251 253 254 253 252 252 253 252 252 253 254 257 258 259 261 262 264 265 266 267 266 267
320 320 322 324 327 327 326 323 322 318 314 314 312 300 290 288 283 273 267 262 252 246 245 248 246 249 250 253 255 256 255 254 254 254 255 255 255 257 258 260 261 263 265 266 266 266 267 267 267
316 320 321 323 325 325 324 325 323 320 316 311 308 301 292 289 284 279 276 268 259 253 253 253 251 253 255 257 258 259 259 257 257 257 258 259 259 261 262 263 264 266 266 267 266 267 267 267 268
312 315 316 318 320 321 322 323 323 319 315 314 311 305 298 290 286 280 277 274 267 260 259 258 258 258 258 260 262 262 260 260 260 259 260 261 262 263 263 264 266 268 268 268 267 267 267 268 269
303 307 311 313 316 318 317 319 321 318 315 311 308 307 303 291 286 284 278 274 272 267 263 263 264 264 263 263 264 264 264 264 265 264 264 264 264 264 266 267 267 269 269 268 268 269 270 271 271